Starlink 11262

operational
NORAD ID: 62009 Int'l Des: 2024-213 Owner: SPXS Country: US Constellation: starlink
LEOCIRCULAR

关于 Starlink 11262

正在加载描述...

实时位置

正在加载3D地球...

即将过境

高度历史

Altitude vs Time

uPlot chart will show altitude changes over time

两行轨道根数

1 62009U 24213B 25308.53045496 .00196470 00000-0 15835-2 0 9994
2 62009 53.1573 298.5380 0001981 86.3310 273.7935 15.69783953 55257
Epoch: Nov 4, 2025 • Age: 8 hours

当前状态

高度 363.4 km
速度 7.69 km/s
星下点 -14.07°S, 125.07°E
发射日期 Nov 18, 2024
运行时间 0.9 years
类型 internet

技术详情

分类 Payload
质量 960.00 kg
干质量 910.00 kg
总质量 960.00 kg
长度 0.30 m
直径 4.10 m
跨度 29.00 m
形状 Box + pan
制造商 SPXS
平台类型 Starlink V2MD
阶段状态 In Orbit
所有者/国家 SPXS/US

大型星座

Loading constellations...